This is the latest recevied weather packets stored in our database for station/object N6RDS-8. If no packets are shown the sender has not sent any weather packets the latest 10 day(s).
| Time | Temp. | Humidity | Pressure | Rain* | Wind** | Luminosity | Snow |
|---|---|---|---|---|---|---|---|
| 1778204096 | 25° C | 22% | 1016 hPa | 0 mm | - | 18 W/m² | - |
| 1778203793 | 25° C | 22% | 1015.8 hPa | 0 mm | - | 31 W/m² | - |
| 1778203490 | 25° C | 22% | 1015.5 hPa | 0 mm | - | 41 W/m² | - |
| 1778203187 | 25° C | 22% | 1015.3 hPa | 0 mm | - | 47 W/m² | - |
| 1778202885 | 25.56° C | 22% | 1015.6 hPa | 0 mm | - | 46 W/m² | - |
| 1778202582 | 25.56° C | 22% | 1015.2 hPa | 0 mm | - | 54 W/m² | - |
| 1778202278 | 25° C | 22% | 1015.5 hPa | 0 mm | - | 64 W/m² | - |
| 1778201976 | 25° C | 22% | 1015.3 hPa | 0 mm | - | 78 W/m² | - |
| 1778201673 | 25° C | 22% | 1015.2 hPa | 0 mm | - | 66 W/m² | - |
| 1778201370 | 25° C | 22% | 1015.1 hPa | 0 mm | - | 56 W/m² | - |
| 1778201066 | 25° C | 22% | 1015 hPa | 0 mm | - | 61 W/m² | - |
| 1778200763 | 25° C | 22% | 1015.1 hPa | 0 mm | - | 70 W/m² | - |
| 1778200460 | 25° C | 22% | 1015 hPa | 0 mm | - | 71 W/m² | - |
| 1778200156 | 25° C | 22% | 1015 hPa | 0 mm | - | 73 W/m² | - |
| 1778199853 | 25.56° C | 23% | 1015 hPa | 0 mm | - | 76 W/m² | - |
| 1778199549 | 25.56° C | 23% | 1015 hPa | 0 mm | - | 72 W/m² | - |
| 1778199245 | 25.56° C | 22% | 1015.1 hPa | 0 mm | - | 71 W/m² | - |
| 1778198941 | 25.56° C | 22% | 1015 hPa | 0 mm | - | 70 W/m² | - |
| 1778198638 | 25.56° C | 23% | 1015 hPa | 0 mm | - | 73 W/m² | - |
| 1778198334 | 25.56° C | 22% | 1015 hPa | 0 mm | - | 81 W/m² | - |
| 1778198032 | 25.56° C | 22% | 1015.2 hPa | 0 mm | - | 87 W/m² | - |
| 1778197729 | 25.56° C | 22% | 1015.1 hPa | 0 mm | - | 90 W/m² | - |
| 1778197425 | 25.56° C | 22% | 1015.2 hPa | 0 mm | - | 87 W/m² | - |
| 1778197122 | 26.11° C | 22% | 1015.1 hPa | 0 mm | - | 86 W/m² | - |
| 1778196820 | 26.11° C | 22% | 1015 hPa | 0 mm | - | 83 W/m² | - |
* Rain latest hour (hover to see other rain measurements)
** Current wind speed in m/s (hover to see current wind gust speed)